Regional Weather Roundup
Issued by NWS

Home | Current Version | Previous Version | Graphics & Text | Print | Product List | Glossary On
Versions: 1 2 3 4 5 6 7 8 9 10 11 12 13 14 15 16 17 18 19 20 21 22 23 24 25 26 27 28 29 30 31 32 33 34 35 36 37 38 39 40 41 42 43 44 45 46 47 48 49 50
000
ASUS43 KLMK 220602
RWRKY
KENTUCKY REGIONAL WEATHER ROUNDUP
NATIONAL WEATHER SERVICE LOUISVILLE KY
100 AM EST SUN JAN 22 2017

NOTE "FAIR" INDICATES FEW OR NO CLOUDS BELOW 12,000 FEET
WITH NO SIGNIFICANT WEATHER AND/OR OBSTRUCTIONS TO VISIBILITY.

KYZ001>023-026-027-061>063-070>075-220700-
WESTERN AND SOUTH CENTRAL KENTUCKY

CITY           SKY/WX    TMP DP  RH WIND       PRES   REMARKS
PADUCAH        PTCLDY    52  47  83 NE3       29.49F
HENDERSON      MOCLDY    54  46  76 E3        29.55F
OWENSBORO      PTCLDY    55  49  80 E5        29.57F
HOPKINSVILLE   PTCLDY    53  49  88 E5        29.51F
BOWLING GREEN  CLOUDY    54  49  83 NE6       29.56F
GLASGOW        NOT AVBL
$$

KYZ024-025-028>034-038-045-046-053-220700-
NORTH CENTRAL KENTUCKY

CITY           SKY/WX    TMP DP  RH WIND       PRES   REMARKS
LOUISVILLE/SDF MOCLDY    51  46  83 E6        29.60F
LOUISVILLE/LOU CLEAR     50  46  86 CALM      29.61F
FORT KNOX      MOCLDY    50  46  84 NE5       29.57F
$$

KYZ035>037-039>044-047>052-055>060-089>105-220700-
NORTHEAST KENTUCKY

CITY           SKY/WX    TMP DP  RH WIND       PRES   REMARKS
LEXINGTON      PTCLDY    54  48  80 E6        29.63F
COVINGTON      CLOUDY    53  51  93 S5        29.63F
FRANKFORT      CLEAR     49  45  86 SE3       29.61F
$$

KYZ054-064>069-076>088-106>120-220700-
SOUTHEAST KENTUCKY

CITY           SKY/WX    TMP DP  RH WIND       PRES   REMARKS
JACKSON        CLEAR     53  49  86 CALM      29.65F
LONDON         FOG       45  44  97 CALM      29.64F VSB 1/2
SOMERSET       CLEAR     46  46 100 CALM      29.65F FOG
MIDDLESBORO    FOG       43  43 100 CALM      29.67F VSB 1/4
MONTICELLO     PTCLDY    47  46  97 N12       29.64F
$$





USA.gov is the U.S. government's official web portal to all federal, state and local government web resources and services.